When you browse on this site, cookies collect data to enhance your experience and personalize the content and advertising you see.
Visit our Privacy Policy to learn more. By continuing to use the site, you agree to this use of cookies and data.
EN

Hourly Weather Potik

Today, 7 August, Friday

Time Temperature Precipitation Wind Pressure Humidity
00:00 +21°C° 0 mm 2 mps 744 mmHg 74%
01:00 +20°C° 0 mm 2 mps 744 mmHg 77%
02:00 +20°C° 0 mm 2 mps 744 mmHg 81%
03:00 +21°C° 0 mm 1 mps 744 mmHg 83%
04:00 +20°C° 0 mm 1 mps 744 mmHg 84%
05:00 +20°C° 0 mm 1 mps 744 mmHg 86%
06:00 +21°C° 0 mm 1 mps 744 mmHg 82%
07:00 +21°C° 0 mm 2 mps 744 mmHg 78%
08:00 +24°C° 0 mm 2 mps 745 mmHg 72%
09:00 +26°C° 0 mm 2 mps 745 mmHg 67%
10:00 +27°C° 0 mm 3 mps 745 mmHg 62%
11:00 +28°C° 0 mm 3 mps 745 mmHg 57%
12:00 +29°C° 0 mm 3 mps 745 mmHg 55%
13:00 +29°C° 0 mm 3 mps 744 mmHg 54%
14:00 +30°C° 0 mm 4 mps 744 mmHg 52%
15:00 +30°C° 0 mm 3 mps 744 mmHg 55%
16:00 +29°C° 0 mm 3 mps 744 mmHg 57%
17:00 +29°C° 0 mm 3 mps 744 mmHg 60%
18:00 +27°C° 0 mm 3 mps 744 mmHg 64%
19:00 +25°C° 0 mm 3 mps 744 mmHg 68%
20:00 +24°C° 0 mm 2 mps 744 mmHg 72%
21:00 +23°C° 0 mm 2 mps 744 mmHg 75%
22:00 +21°C° 0 mm 2 mps 744 mmHg 79%
23:00 +20°C° 0 mm 2 mps 744 mmHg 82%

Tomorrow, 8 August, Saturday

Time Temperature Precipitation Wind Pressure Humidity
00:00 +20°C° 0 mm 2 mps 744 mmHg 86%
01:00 +20°C° 0 mm 2 mps 744 mmHg 89%
02:00 +19°C° 0 mm 2 mps 744 mmHg 92%
03:00 +19°C° 0 mm 2 mps 744 mmHg 93%
04:00 +19°C° 0 mm 2 mps 744 mmHg 94%
05:00 +18°C° 0 mm 2 mps 744 mmHg 95%
06:00 +20°C° 0 mm 2 mps 744 mmHg 91%
07:00 +21°C° 0 mm 2 mps 744 mmHg 87%
08:00 +23°C° 0 mm 2 mps 744 mmHg 84%
09:00 +25°C° 0.7 mm 3 mps 744 mmHg 80%
10:00 +26°C° 0.7 mm 3 mps 744 mmHg 75%
11:00 +27°C° 0.7 mm 3 mps 744 mmHg 71%
12:00 +27°C° 0.9 mm 3 mps 744 mmHg 69%
13:00 +28°C° 0.9 mm 4 mps 743 mmHg 66%
14:00 +28°C° 0.9 mm 4 mps 743 mmHg 64%
15:00 +28°C° 0.2 mm 4 mps 743 mmHg 64%
16:00 +28°C° 0.2 mm 3 mps 743 mmHg 65%
17:00 +28°C° 0.2 mm 3 mps 742 mmHg 65%
18:00 +26°C° 0 mm 3 mps 742 mmHg 70%
19:00 +25°C° 0 mm 3 mps 742 mmHg 76%
20:00 +23°C° 0 mm 2 mps 742 mmHg 81%
21:00 +21°C° 0 mm 2 mps 742 mmHg 83%
22:00 +20°C° 0 mm 2 mps 742 mmHg 85%
23:00 +20°C° 0 mm 2 mps 742 mmHg 87%

Day after tomorrow, 9 August, Sunday

Time Temperature Precipitation Wind Pressure Humidity
00:00 +19°C° 0 mm 2 mps 742 mmHg 88%
01:00 +19°C° 0 mm 2 mps 742 mmHg 90%
02:00 +20°C° 0 mm 1 mps 742 mmHg 91%
03:00 +19°C° 0 mm 1 mps 742 mmHg 92%
04:00 +19°C° 0 mm 1 mps 742 mmHg 92%
05:00 +19°C° 0 mm 1 mps 742 mmHg 92%
06:00 +20°C° 0 mm 1 mps 742 mmHg 87%
07:00 +21°C° 0 mm 1 mps 742 mmHg 83%
08:00 +23°C° 0 mm 1 mps 742 mmHg 78%
09:00 +24°C° 0 mm 1 mps 742 mmHg 74%
10:00 +25°C° 0 mm 1 mps 742 mmHg 69%
11:00 +26°C° 0 mm 2 mps 742 mmHg 65%
12:00 +27°C° 0.2 mm 2 mps 742 mmHg 63%
13:00 +27°C° 0.2 mm 2 mps 741 mmHg 61%
14:00 +28°C° 0.2 mm 2 mps 741 mmHg 60%
15:00 +28°C° 0.8 mm 2 mps 741 mmHg 63%
16:00 +27°C° 0.8 mm 2 mps 740 mmHg 66%
17:00 +27°C° 0.8 mm 3 mps 740 mmHg 70%
18:00 +25°C° 0.4 mm 2 mps 740 mmHg 75%
19:00 +24°C° 0.4 mm 2 mps 740 mmHg 80%
20:00 +21°C° 0.4 mm 2 mps 740 mmHg 86%
21:00 +20°C° 0 mm 2 mps 740 mmHg 87%
22:00 +20°C° 0 mm 2 mps 740 mmHg 89%
23:00 +20°C° 0 mm 1 mps 740 mmHg 90%

10 August, Monday

Time Temperature Precipitation Wind Pressure Humidity
00:00 +20°C° 0 mm 1 mps 740 mmHg 90%
01:00 +19°C° 0 mm 1 mps 740 mmHg 90%
02:00 +19°C° 0 mm 1 mps 740 mmHg 90%
03:00 +17°C° 0 mm 0 mps 740 mmHg 90%
04:00 +17°C° 0 mm 0 mps 740 mmHg 90%
05:00 +16°C° 0 mm 0 mps 740 mmHg 91%
06:00 +18°C° 0 mm 0 mps 740 mmHg 87%
07:00 +19°C° 0 mm 0 mps 740 mmHg 84%
08:00 +20°C° 0 mm 0 mps 740 mmHg 81%
09:00 +23°C° 0.1 mm 1 mps 740 mmHg 76%
10:00 +25°C° 0.1 mm 1 mps 740 mmHg 72%
11:00 +26°C° 0.1 mm 1 mps 740 mmHg 68%
12:00 +26°C° 0.1 mm 1 mps 740 mmHg 64%
13:00 +27°C° 0.1 mm 1 mps 740 mmHg 60%
14:00 +28°C° 0.1 mm 1 mps 740 mmHg 57%
15:00 +28°C° 0.4 mm 1 mps 739 mmHg 59%
16:00 +27°C° 0.4 mm 1 mps 739 mmHg 61%
17:00 +27°C° 0.4 mm 1 mps 739 mmHg 62%
18:00 +25°C° 0.1 mm 1 mps 739 mmHg 67%
19:00 +24°C° 0.1 mm 1 mps 739 mmHg 72%
20:00 +22°C° 0.1 mm 1 mps 739 mmHg 77%
21:00 +21°C° 0.1 mm 1 mps 739 mmHg 79%
22:00 +21°C° 0.1 mm 1 mps 740 mmHg 81%
23:00 +20°C° 0.1 mm 1 mps 740 mmHg 83%

11 August, Tuesday

Time Temperature Precipitation Wind Pressure Humidity
00:00 +20°C° 0.1 mm 1 mps 740 mmHg 84%
01:00 +17°C° 0.1 mm 0 mps 740 mmHg 85%
02:00 +17°C° 0.1 mm 0 mps 740 mmHg 86%
03:00 +17°C° 0 mm 0 mps 740 mmHg 87%
04:00 +16°C° 0 mm 0 mps 740 mmHg 87%
05:00 +16°C° 0 mm 0 mps 740 mmHg 88%
06:00 +18°C° 0 mm 0 mps 740 mmHg 84%
07:00 +19°C° 0 mm 0 mps 740 mmHg 80%
08:00 +21°C° 0 mm 0 mps 740 mmHg 77%
09:00 +22°C° 0.4 mm 0 mps 740 mmHg 72%
10:00 +24°C° 0.4 mm 0 mps 740 mmHg 68%
11:00 +27°C° 0.4 mm 1 mps 740 mmHg 63%
12:00 +28°C° 0.1 mm 1 mps 740 mmHg 60%
13:00 +28°C° 0.1 mm 1 mps 740 mmHg 56%
14:00 +29°C° 0.1 mm 1 mps 740 mmHg 53%
15:00 +28°C° 0 mm 1 mps 740 mmHg 55%
16:00 +28°C° 0 mm 2 mps 739 mmHg 57%
17:00 +28°C° 0 mm 2 mps 739 mmHg 60%
18:00 +26°C° 0.1 mm 2 mps 739 mmHg 67%
19:00 +24°C° 0.1 mm 2 mps 739 mmHg 75%
20:00 +21°C° 0.1 mm 2 mps 739 mmHg 82%
21:00 +22°C° 0.1 mm 1 mps 739 mmHg 84%
22:00 +21°C° 0.1 mm 1 mps 739 mmHg 86%
23:00 +20°C° 0.1 mm 1 mps 740 mmHg 88%

12 August, Wednesday

Time Temperature Precipitation Wind Pressure Humidity
00:00 +20°C° 0 mm 1 mps 740 mmHg 89%
01:00 +19°C° 0 mm 1 mps 739 mmHg 90%
02:00 +19°C° 0 mm 1 mps 739 mmHg 91%
03:00 +19°C° 0 mm 1 mps 739 mmHg 92%
04:00 +18°C° 0 mm 1 mps 739 mmHg 93%
05:00 +18°C° 0 mm 1 mps 739 mmHg 94%
06:00 +18°C° 0.1 mm 2 mps 739 mmHg 92%
07:00 +19°C° 0.1 mm 2 mps 740 mmHg 89%
08:00 +20°C° 0.1 mm 2 mps 740 mmHg 86%
09:00 +21°C° 0.1 mm 3 mps 740 mmHg 81%
10:00 +22°C° 0.1 mm 4 mps 740 mmHg 75%
11:00 +23°C° 0.1 mm 4 mps 740 mmHg 69%
12:00 +25°C° 0.1 mm 4 mps 740 mmHg 67%
13:00 +25°C° 0.1 mm 4 mps 740 mmHg 65%
14:00 +26°C° 0.1 mm 4 mps 740 mmHg 62%
15:00 +25°C° 0 mm 4 mps 740 mmHg 64%
16:00 +25°C° 0 mm 4 mps 740 mmHg 65%
17:00 +23°C° 0 mm 4 mps 740 mmHg 66%
18:00 +21°C° 0 mm 4 mps 740 mmHg 72%
19:00 +20°C° 0 mm 3 mps 740 mmHg 78%
20:00 +18°C° 0 mm 3 mps 741 mmHg 84%
21:00 +17°C° 0 mm 3 mps 741 mmHg 84%
22:00 +16°C° 0 mm 3 mps 741 mmHg 85%
23:00 +14°C° 0 mm 3 mps 741 mmHg 86%
Show more